SCP
0 0 0 0 0 0 0 0 0 0 0 0 0 0 0 0 0 0 0 0 0 0 0 0 0 0 0 0 0 0 0 0 0 0 0 0 0 0 0 0 0 0 0 0
0 0 0 0 0 0 0 0 0 0 0 0 0 0 0 0 0 0 0 0 0 0 0 0 0 0 0 0 0 0 0 0 0 0 0 0 0 0 0 0 0 0 0 0
0 0 0 0 0 0 0 0 0 0 0 0 0 0 0 0 0 -0 0 0 0 0 0 0 0 0 0 0 0 0 0 0 0 0 0 0 0 0 0 0 0 0 0 0
0 0 0 0 0 0 0 0 0 0 0 0 0 0 0 0 -0 0 0 0 0 0 0 0 0 0 0 0 0 0 0 0 0 0 0 0 0 0 0 0 0 0 0 0
0 0 0 0 0 0 0 0 0 0 0 0 0 0 0 0 0 0 0 0 0 0 0 0 0 0 0 0 0 0 0 0 0 0 0 0 0 0 0 0 0 0 0 0
0 0 0 0 0 0 0 0 0 0 0 0 0 0 0 0 0 0 0 0 0 0 0 0 0 0 0 0 0 0 0 0 0 0 0 0 0 0 0 0 0 0 0 0
0 0 0 0 0 0 0 0 0 0 0 0 0 0 0 0 0 0 0 0 0 0 0 0 0 0 0 0 0 0 0 0 0 0 0 0 0 0 0 0 0 0 0 0
0 0 0 0 0 0 0 0 0 0 0 0 0 0 0 0 0 0 0 0 0 0 0 0 0 0 0 0 0 0 0 0 0 0 0 0 0 0 0 0 0 0 0 0
0 0 0 0 0 0 0 0 0 0 0 0 0 0 0 0 0 0 0 0 0 0 0 0 0 0 0 0 0 0 0 0 0 0 0 0 0 0 0 0 0 0 0 0
0 0 0 0 0 0 0 0 0 0 0 0 0 0 0 0 0 0 0 0 0 0 0 0 0 0 0 0 0 0 0 0 0 0 0 0 0 0 0 0 0 0 -0 -0
0 0 0 0 0 0 0 0 0 0 0 0 0 0 0 0 0 0 0 0 0 0 0 0 0 0 0 0 0 0 0 0 0 0 0 0 0 0 0 0 -0 -0 -0 0
0 0 0 0 0 0 0 0 0 0 0 0 0 0 0 0 0 0 0 0 0 0 0 0 0 0 0 0 0 0 0 0 0 0 0 0 -0 0 0 0 -0 0 0 0
0 0 0 0 0 0 0 0 0 0 0 0 0 0 0 0 0 0 0 0 0 0 0 0 0 0 0 0 0 0 0 0 0 0 0 -0 -0 0 -0 0 0 0 -0 0
0 0 0 0 0 0 0 0 0 0 0 0 0 0 0 0 0 0 0 0 0 0 0 0 0 0 0 0 0 0 0 0 0 -0 -0 -0 -0 0 -0 -0 0 0 0 0
0 0 0 0 0 0 0 0 0 0 0 0 0 0 0 0 0 0 0 0 0 0 0 0 0 0 0 0 0 0 0 0 0 -0 -0 -0 -0 -0 0 0 0 0 0 0
0 0 0 0 0 0 0 0 0 0 0 0 0 0 0 0 0 0 0 0 0 0 0 0 0 0 0 0 0 0 0 -0 -0 -0 -0 0 -0 -0 0 0 0 0 0 0
0 0 0 0 0 0 0 0 0 0 0 0 0 0 0 0 0 0 0 0 0 0 0 0 0 0 0 0 0 0 0 -0 -0 -0 -0 -0 -0 0 0 0 0 0 0 0
0 0 0 0 0 0 0 0 0 0 0 0 0 0 0 0 0 0 0 0 0 0 0 0 0 0 0 0 0 0 0 -0 -0 -0 0 -0 -0 0 0 0 0 0 0 -0
0 0 0 0 0 0 0 0 0 0 0 0 0 0 0 0 0 0 0 0 0 0 0 0 0 0 0 0 0 0 -0 -0 -0 0 0 -0 0 0 0 0 0 0 -0 0
0 0 0 0 0 0 0 0 0 0 0 0 0 0 0 0 0 0 0 0 0 0 0 0 0 0 0 0 0 0 -0 -0 -0 0 0 -0 0 0 -0 -0 -0 -0 -0 0
0 0 0 0 0 0 0 0 0 0 0 0 0 0 0 0 0 0 0 0 0 0 0 0 0 0 0 0 0 0 -0 -0 -0 -0 0 0 0 -0 -0 0 0 -0 -0 0
0 0 0 0 0 0 0 0 0 0 0 0 0 0 0 0 0 0 0 0 0 0 0 0 0 0 0 0 0 -0 -0 -0 -0 -0 -0 -0 -0 -0 0 0 0 -0 0 0
0 0 0 0 0 0 0 0 0 0 0 0 0 0 0 0 0 0 0 0 0 0 0 0 0 0 0 0 0 -0 -0 -0 0 0 0 -0 -0 -0 0 0 0 -0 0 0
0 0 0 0 0 0 0 0 0 0 0 0 0 0 0 0 0 0 0 0 0 0 0 0 0 0 0 0 0 -0 -0 -0 0 0 0 0 -0 -0 0 -0 -0 -0 0 0
0 0 0 0 0 0 0 0 0 0 0 0 0 0 0 0 0 0 0 0 0 0 0 0 0 0 0 0 0 -0 -0 -0 0 0 0 0 -0 -0 0 -0 -0 0 0 -0
0 0 0 0 0 0 0 0 0 0 0 0 0 0 0 0 0 0 0 0 0 0 0 0 0 0 0 0 -0 -0 -0 -0 0 0 0 0 -0 0 0 -0 0 -0 -0 -0
0 0 0 0 0 0 0 0 0 0 0 0 0 0 0 0 0 0 0 0 0 0 0 0 0 0 0 0 -0 -0 -0 -0 0 -0 0 0 0 0 0 0 0 0 0 0
Wind_Speed_500mb
7 8 4 7 11 9 11 9 10 9 13 7 7 9 13 17 19 20 22 26 27 28 29 33 37 40 45 55 62 65 65 68 71 75 80 85 88 87 86 75 72 79 76 74
5 5 7 8 10 11 10 7 14 10 10 2 6 4 16 17 11 10 22 30 35 40 42 43 40 42 50 58 61 62 64 67 71 78 82 81 83 81 75 71 80 75 75 75
7 10 12 12 6 5 4 7 5 9 7 4 3 11 21 17 11 16 29 42 43 43 45 40 38 44 54 58 59 60 63 68 73 74 79 82 80 72 70 77 77 78 72 69
5 8 1 9 2 7 7 3 7 8 6 4 9 20 27 13 22 28 47 51 47 46 38 34 39 49 56 55 58 62 66 71 71 75 80 79 74 69 74 76 78 79 76 71
4 4 12 1 7 9 8 9 10 5 3 7 17 18 11 22 36 47 53 49 49 39 33 36 43 51 53 56 59 64 68 70 72 76 79 73 71 71 72 74 77 72 67 68
4 7 10 8 3 9 11 8 8 5 3 12 21 11 8 38 46 51 47 49 40 32 32 38 46 50 54 57 62 64 66 70 73 75 72 68 68 73 72 71 67 63 61 64
4 5 15 12 8 10 6 9 6 4 10 15 5 16 44 48 49 44 44 39 32 31 34 43 47 50 53 58 58 61 65 72 74 74 62 64 67 69 67 59 58 57 64 63
5 3 13 10 13 11 8 9 2 6 14 21 27 35 41 48 49 48 40 31 29 31 37 41 44 48 52 53 56 60 68 70 76 65 61 66 69 62 57 57 61 65 67 68
17 11 9 8 17 18 10 8 4 14 20 23 29 34 43 49 45 45 33 26 29 35 40 40 42 47 51 52 55 64 66 70 69 60 66 66 65 59 58 58 57 67 60 69
5 6 11 24 17 12 7 11 12 15 19 24 29 34 41 45 41 35 25 26 33 37 39 43 45 45 46 49 57 62 65 68 63 64 62 65 61 56 55 54 58 58 61 65
9 6 11 11 13 7 7 8 11 16 23 29 33 38 41 42 35 29 27 32 35 37 43 46 44 44 44 50 58 60 63 65 63 61 65 66 58 54 51 46 50 51 51 57
10 13 9 14 16 9 4 7 15 22 27 31 35 40 41 37 31 32 35 33 35 40 44 43 43 43 43 53 55 56 63 62 62 61 61 62 58 59 47 41 39 39 41 47
5 15 11 21 15 6 3 9 16 23 29 34 36 40 41 37 32 33 37 34 40 43 46 43 41 41 45 54 53 51 57 62 58 58 58 56 56 54 56 50 36 36 39 45
20 25 17 18 12 5 2 10 20 22 27 34 38 41 43 39 33 34 37 37 40 44 47 41 41 40 47 53 52 53 53 59 52 54 57 51 49 46 44 44 44 45 44 45
25 16 7 12 12 5 6 18 22 24 28 35 39 42 46 44 38 36 36 38 40 45 41 39 39 40 49 51 50 49 55 58 51 50 50 45 43 41 40 38 39 40 43 44
24 16 12 12 9 9 18 24 28 34 35 38 43 41 46 43 39 37 36 35 40 47 45 40 38 41 49 49 48 46 54 54 44 47 46 43 41 41 40 38 39 39 41 48
31 24 21 19 14 20 25 30 35 41 42 42 42 40 46 44 41 37 30 28 34 45 42 38 36 41 46 46 42 44 54 50 42 44 43 39 37 37 38 38 36 37 41 47
30 24 20 23 25 29 35 40 41 44 42 43 42 39 44 44 42 34 29 33 35 34 39 33 33 39 43 42 38 42 49 44 40 42 39 38 33 35 37 36 34 36 40 46
36 31 30 35 37 39 39 39 39 40 42 44 44 38 41 41 39 32 29 31 32 36 36 33 32 38 40 39 34 38 42 40 38 39 38 36 31 33 35 33 35 40 41 45
14 19 23 23 28 35 40 38 38 43 43 42 38 36 38 39 37 32 28 30 27 36 38 33 31 38 37 37 38 35 37 36 36 37 36 36 33 32 32 32 36 38 41 43
11 13 21 30 33 36 36 39 38 39 35 33 34 35 38 40 38 32 29 29 22 32 34 29 31 34 33 35 36 31 35 34 35 35 36 36 35 31 29 32 34 38 39 45
15 21 30 38 40 41 38 33 38 36 31 32 31 35 40 41 38 32 27 28 23 30 29 28 25 29 28 34 31 28 32 30 30 34 34 34 34 33 29 32 34 37 36 38
27 31 36 37 37 38 39 35 34 32 32 31 34 40 38 38 38 34 27 23 23 26 24 24 25 27 28 30 28 26 28 28 28 32 34 31 32 32 32 29 34 39 44 37
34 36 37 39 42 43 42 35 31 30 31 30 36 34 34 38 33 26 21 22 23 22 22 21 25 26 28 27 24 22 24 27 24 29 34 35 33 30 32 32 35 41 40 28
33 35 39 39 39 35 32 30 30 32 38 39 35 31 31 32 29 18 18 17 19 19 19 19 21 23 24 23 21 21 20 23 25 25 27 32 37 40 31 30 32 36 37 32
32 36 35 33 35 31 31 34 38 40 44 45 39 31 30 29 27 24 19 19 16 15 15 13 17 19 21 21 20 19 18 20 22 24 24 27 32 33 36 32 32 34 38 37
35 31 29 29 29 26 31 37 42 46 43 42 42 34 26 23 23 23 23 19 14 12 13 10 14 18 19 19 19 18 17 17 21 23 25 24 30 30 31 35 35 36 34 36
Wind_Direction_500mb
248 254 281 248 248 219 204 191 192 240 216 319 0 76 64 22 8 8 4 350 342 335 319 303 294 298 310 318 319 316 315 316 317 316 317 317 318 318 318 318 316 319 315 310
286 14 1 277 263 247 230 213 250 243 266 3 91 53 359 0 355 350 338 337 327 319 308 301 300 306 314 319 319 318 319 318 317 318 318 320 320 321 322 317 315 316 315 313
274 354 330 311 218 225 220 182 204 208 191 189 288 333 334 328 296 314 328 326 323 318 308 298 302 313 319 320 319 320 318 319 320 322 322 324 324 324 325 316 318 317 316 316
248 5 349 240 305 246 186 134 132 122 190 252 302 314 308 303 301 307 325 324 319 319 303 294 308 316 319 320 320 320 320 321 323 324 327 327 325 330 325 321 320 321 320 319
125 205 289 275 179 188 173 256 192 167 12 326 318 307 286 334 334 323 319 317 316 311 298 302 311 318 319 320 321 322 323 323 325 326 327 326 328 327 325 325 324 324 324 323
121 142 219 247 187 122 100 284 144 134 336 326 344 346 261 329 322 320 314 318 313 296 298 311 319 319 320 321 322 322 324 326 326 327 326 326 327 329 328 327 326 328 327 327
148 230 285 244 165 132 89 239 145 17 336 322 283 282 312 318 320 320 313 315 300 292 306 315 318 318 319 321 322 325 327 327 327 327 327 335 331 331 331 332 330 330 333 331
91 86 288 177 114 175 178 142 126 343 342 328 320 318 319 320 320 323 316 298 289 302 312 316 318 318 321 324 326 328 329 329 330 330 333 332 333 330 336 336 335 335 337 331
181 215 256 197 135 133 140 130 20 351 343 330 320 322 327 326 323 322 307 289 301 310 316 321 320 321 321 325 329 331 332 333 333 332 331 333 334 338 338 335 338 339 330 334
87 247 197 147 140 139 85 45 9 351 347 344 330 328 328 329 329 325 303 300 308 313 318 321 322 323 325 329 332 333 333 336 339 331 334 333 340 344 340 340 339 334 335 339
255 267 132 166 167 120 68 33 17 5 357 352 345 337 331 331 332 327 310 309 312 318 322 323 323 326 328 332 334 334 334 336 339 338 336 337 343 343 343 343 340 335 339 345
231 210 172 180 163 134 99 25 6 359 353 352 344 337 331 329 321 319 319 314 316 322 322 322 325 328 329 334 336 336 334 340 337 336 344 340 341 342 352 351 346 348 351 353
259 169 149 150 155 160 26 4 359 355 350 344 342 338 336 324 317 315 321 317 319 323 324 323 325 327 330 337 336 335 337 340 336 341 341 341 344 347 346 352 360 359 2 1
159 159 152 179 194 203 322 340 336 339 345 344 339 340 336 329 316 310 316 315 318 324 324 322 324 327 333 337 335 333 341 340 341 341 338 343 344 347 349 349 350 356 7 3
185 196 215 183 195 238 312 335 336 328 330 332 333 334 333 328 319 309 311 314 318 324 326 322 323 328 335 336 337 340 343 342 341 338 341 345 348 351 350 351 355 2 6 7
190 192 199 206 233 279 303 310 304 310 313 315 322 327 329 326 323 313 311 313 319 329 329 323 325 329 334 336 337 339 341 341 342 343 348 352 353 353 354 354 2 7 8 11
191 198 210 225 261 290 294 304 298 308 306 311 320 319 327 324 322 316 307 306 313 323 324 321 324 330 334 337 338 337 339 342 347 351 354 355 354 355 355 356 6 11 14 10
222 233 237 250 281 296 299 299 299 305 307 312 312 310 322 320 318 314 297 298 308 320 324 320 323 330 335 335 337 334 340 346 351 355 359 359 354 356 360 5 8 11 9 12
230 242 266 275 288 296 301 306 307 308 310 309 302 304 317 320 317 311 300 301 309 320 325 323 325 332 334 336 339 339 343 347 352 358 5 1 358 2 5 9 12 9 8 9
255 263 279 289 303 307 304 305 307 308 311 308 301 303 314 321 319 309 300 302 308 314 320 321 324 331 333 337 343 344 346 351 354 358 6 5 4 4 6 8 15 10 7 13
278 288 298 305 306 305 304 309 307 306 315 309 303 305 309 317 319 312 297 299 306 310 318 321 325 330 337 334 338 344 349 354 356 357 3 5 4 5 6 6 16 11 17 20
292 305 308 309 306 307 309 305 311 307 308 314 308 304 303 307 312 307 294 295 298 307 317 326 328 331 333 328 336 341 349 351 357 358 0 3 4 6 7 8 6 5 1 9
315 318 319 318 315 312 310 311 314 311 306 308 310 313 303 303 306 298 291 289 291 301 314 329 328 332 327 334 338 342 350 353 359 358 2 2 2 8 14 5 6 7 7 11
313 315 316 318 315 311 311 313 305 308 304 304 309 313 308 310 303 294 280 277 290 296 312 323 324 328 330 334 341 342 348 355 356 0 7 12 6 1 9 10 13 8 10 20
301 306 312 312 314 314 311 311 312 311 306 305 307 303 304 310 302 285 284 276 278 290 310 313 316 326 330 337 343 343 344 352 356 354 1 3 8 13 11 12 17 13 25 21
306 306 305 308 310 310 311 310 310 309 309 307 303 304 299 299 294 285 287 283 266 294 305 304 315 328 334 341 344 344 343 349 349 356 358 0 3 6 16 17 16 14 16 14
304 302 305 309 308 310 316 318 320 317 312 309 306 300 293 281 280 271 264 257 256 289 307 301 319 331 336 344 345 345 344 349 354 356 355 3 3 4 10 16 18 19 17 17
Wind_Speed_850mb
7 8 4 7 11 9 11 9 10 9 13 7 7 9 13 17 19 20 22 26 27 28 29 33 37 40 45 55 62 65 65 68 71 75 80 85 88 87 86 75 72 79 76 74
5 5 7 8 10 11 10 7 14 10 10 2 6 4 16 17 11 10 22 30 35 40 42 43 40 42 50 58 61 62 64 67 71 78 82 81 83 81 75 71 80 75 75 75
7 10 12 12 6 5 4 7 5 9 7 4 3 11 21 17 11 16 29 42 43 43 45 40 38 44 54 58 59 60 63 68 73 74 79 82 80 72 70 77 77 78 72 69
5 8 1 9 2 7 7 3 7 8 6 4 9 20 27 13 22 28 47 51 47 46 38 34 39 49 56 55 58 62 66 71 71 75 80 79 74 69 74 76 78 79 76 71
4 4 12 1 7 9 8 9 10 5 3 7 17 18 11 22 36 47 53 49 49 39 33 36 43 51 53 56 59 64 68 70 72 76 79 73 71 71 72 74 77 72 67 68
4 7 10 8 3 9 11 8 8 5 3 12 21 11 8 38 46 51 47 49 40 32 32 38 46 50 54 57 62 64 66 70 73 75 72 68 68 73 72 71 67 63 61 64
4 5 15 12 8 10 6 9 6 4 10 15 5 16 44 48 49 44 44 39 32 31 34 43 47 50 53 58 58 61 65 72 74 74 62 64 67 69 67 59 58 57 64 63
5 3 13 10 13 11 8 9 2 6 14 21 27 35 41 48 49 48 40 31 29 31 37 41 44 48 52 53 56 60 68 70 76 65 61 66 69 62 57 57 61 65 67 68
17 11 9 8 17 18 10 8 4 14 20 23 29 34 43 49 45 45 33 26 29 35 40 40 42 47 51 52 55 64 66 70 69 60 66 66 65 59 58 58 57 67 60 69
5 6 11 24 17 12 7 11 12 15 19 24 29 34 41 45 41 35 25 26 33 37 39 43 45 45 46 49 57 62 65 68 63 64 62 65 61 56 55 54 58 58 61 65
9 6 11 11 13 7 7 8 11 16 23 29 33 38 41 42 35 29 27 32 35 37 43 46 44 44 44 50 58 60 63 65 63 61 65 66 58 54 51 46 50 51 51 57
10 13 9 14 16 9 4 7 15 22 27 31 35 40 41 37 31 32 35 33 35 40 44 43 43 43 43 53 55 56 63 62 62 61 61 62 58 59 47 41 39 39 41 47
5 15 11 21 15 6 3 9 16 23 29 34 36 40 41 37 32 33 37 34 40 43 46 43 41 41 45 54 53 51 57 62 58 58 58 56 56 54 56 50 36 36 39 45
20 25 17 18 12 5 2 10 20 22 27 34 38 41 43 39 33 34 37 37 40 44 47 41 41 40 47 53 52 53 53 59 52 54 57 51 49 46 44 44 44 45 44 45
25 16 7 12 12 5 6 18 22 24 28 35 39 42 46 44 38 36 36 38 40 45 41 39 39 40 49 51 50 49 55 58 51 50 50 45 43 41 40 38 39 40 43 44
24 16 12 12 9 9 18 24 28 34 35 38 43 41 46 43 39 37 36 35 40 47 45 40 38 41 49 49 48 46 54 54 44 47 46 43 41 41 40 38 39 39 41 48
31 24 21 19 14 20 25 30 35 41 42 42 42 40 46 44 41 37 30 28 34 45 42 38 36 41 46 46 42 44 54 50 42 44 43 39 37 37 38 38 36 37 41 47
30 24 20 23 25 29 35 40 41 44 42 43 42 39 44 44 42 34 29 33 35 34 39 33 33 39 43 42 38 42 49 44 40 42 39 38 33 35 37 36 34 36 40 46
36 31 30 35 37 39 39 39 39 40 42 44 44 38 41 41 39 32 29 31 32 36 36 33 32 38 40 39 34 38 42 40 38 39 38 36 31 33 35 33 35 40 41 45
14 19 23 23 28 35 40 38 38 43 43 42 38 36 38 39 37 32 28 30 27 36 38 33 31 38 37 37 38 35 37 36 36 37 36 36 33 32 32 32 36 38 41 43
11 13 21 30 33 36 36 39 38 39 35 33 34 35 38 40 38 32 29 29 22 32 34 29 31 34 33 35 36 31 35 34 35 35 36 36 35 31 29 32 34 38 39 45
15 21 30 38 40 41 38 33 38 36 31 32 31 35 40 41 38 32 27 28 23 30 29 28 25 29 28 34 31 28 32 30 30 34 34 34 34 33 29 32 34 37 36 38
27 31 36 37 37 38 39 35 34 32 32 31 34 40 38 38 38 34 27 23 23 26 24 24 25 27 28 30 28 26 28 28 28 32 34 31 32 32 32 29 34 39 44 37
34 36 37 39 42 43 42 35 31 30 31 30 36 34 34 38 33 26 21 22 23 22 22 21 25 26 28 27 24 22 24 27 24 29 34 35 33 30 32 32 35 41 40 28
33 35 39 39 39 35 32 30 30 32 38 39 35 31 31 32 29 18 18 17 19 19 19 19 21 23 24 23 21 21 20 23 25 25 27 32 37 40 31 30 32 36 37 32
32 36 35 33 35 31 31 34 38 40 44 45 39 31 30 29 27 24 19 19 16 15 15 13 17 19 21 21 20 19 18 20 22 24 24 27 32 33 36 32 32 34 38 37
35 31 29 29 29 26 31 37 42 46 43 42 42 34 26 23 23 23 23 19 14 12 13 10 14 18 19 19 19 18 17 17 21 23 25 24 30 30 31 35 35 36 34 36
Wind_Direction_850mb
248 254 281 248 248 219 204 191 192 240 216 319 0 76 64 22 8 8 4 350 342 335 319 303 294 298 310 318 319 316 315 316 317 316 317 317 318 318 318 318 316 319 315 310
286 14 1 277 263 247 230 213 250 243 266 3 91 53 359 0 355 350 338 337 327 319 308 301 300 306 314 319 319 318 319 318 317 318 318 320 320 321 322 317 315 316 315 313
274 354 330 311 218 225 220 182 204 208 191 189 288 333 334 328 296 314 328 326 323 318 308 298 302 313 319 320 319 320 318 319 320 322 322 324 324 324 325 316 318 317 316 316
248 5 349 240 305 246 186 134 132 122 190 252 302 314 308 303 301 307 325 324 319 319 303 294 308 316 319 320 320 320 320 321 323 324 327 327 325 330 325 321 320 321 320 319
125 205 289 275 179 188 173 256 192 167 12 326 318 307 286 334 334 323 319 317 316 311 298 302 311 318 319 320 321 322 323 323 325 326 327 326 328 327 325 325 324 324 324 323
121 142 219 247 187 122 100 284 144 134 336 326 344 346 261 329 322 320 314 318 313 296 298 311 319 319 320 321 322 322 324 326 326 327 326 326 327 329 328 327 326 328 327 327
148 230 285 244 165 132 89 239 145 17 336 322 283 282 312 318 320 320 313 315 300 292 306 315 318 318 319 321 322 325 327 327 327 327 327 335 331 331 331 332 330 330 333 331
91 86 288 177 114 175 178 142 126 343 342 328 320 318 319 320 320 323 316 298 289 302 312 316 318 318 321 324 326 328 329 329 330 330 333 332 333 330 336 336 335 335 337 331
181 215 256 197 135 133 140 130 20 351 343 330 320 322 327 326 323 322 307 289 301 310 316 321 320 321 321 325 329 331 332 333 333 332 331 333 334 338 338 335 338 339 330 334
87 247 197 147 140 139 85 45 9 351 347 344 330 328 328 329 329 325 303 300 308 313 318 321 322 323 325 329 332 333 333 336 339 331 334 333 340 344 340 340 339 334 335 339
255 267 132 166 167 120 68 33 17 5 357 352 345 337 331 331 332 327 310 309 312 318 322 323 323 326 328 332 334 334 334 336 339 338 336 337 343 343 343 343 340 335 339 345
231 210 172 180 163 134 99 25 6 359 353 352 344 337 331 329 321 319 319 314 316 322 322 322 325 328 329 334 336 336 334 340 337 336 344 340 341 342 352 351 346 348 351 353
259 169 149 150 155 160 26 4 359 355 350 344 342 338 336 324 317 315 321 317 319 323 324 323 325 327 330 337 336 335 337 340 336 341 341 341 344 347 346 352 360 359 2 1
159 159 152 179 194 203 322 340 336 339 345 344 339 340 336 329 316 310 316 315 318 324 324 322 324 327 333 337 335 333 341 340 341 341 338 343 344 347 349 349 350 356 7 3
185 196 215 183 195 238 312 335 336 328 330 332 333 334 333 328 319 309 311 314 318 324 326 322 323 328 335 336 337 340 343 342 341 338 341 345 348 351 350 351 355 2 6 7
190 192 199 206 233 279 303 310 304 310 313 315 322 327 329 326 323 313 311 313 319 329 329 323 325 329 334 336 337 339 341 341 342 343 348 352 353 353 354 354 2 7 8 11
191 198 210 225 261 290 294 304 298 308 306 311 320 319 327 324 322 316 307 306 313 323 324 321 324 330 334 337 338 337 339 342 347 351 354 355 354 355 355 356 6 11 14 10
222 233 237 250 281 296 299 299 299 305 307 312 312 310 322 320 318 314 297 298 308 320 324 320 323 330 335 335 337 334 340 346 351 355 359 359 354 356 360 5 8 11 9 12
230 242 266 275 288 296 301 306 307 308 310 309 302 304 317 320 317 311 300 301 309 320 325 323 325 332 334 336 339 339 343 347 352 358 5 1 358 2 5 9 12 9 8 9
255 263 279 289 303 307 304 305 307 308 311 308 301 303 314 321 319 309 300 302 308 314 320 321 324 331 333 337 343 344 346 351 354 358 6 5 4 4 6 8 15 10 7 13
278 288 298 305 306 305 304 309 307 306 315 309 303 305 309 317 319 312 297 299 306 310 318 321 325 330 337 334 338 344 349 354 356 357 3 5 4 5 6 6 16 11 17 20
292 305 308 309 306 307 309 305 311 307 308 314 308 304 303 307 312 307 294 295 298 307 317 326 328 331 333 328 336 341 349 351 357 358 0 3 4 6 7 8 6 5 1 9
315 318 319 318 315 312 310 311 314 311 306 308 310 313 303 303 306 298 291 289 291 301 314 329 328 332 327 334 338 342 350 353 359 358 2 2 2 8 14 5 6 7 7 11
313 315 316 318 315 311 311 313 305 308 304 304 309 313 308 310 303 294 280 277 290 296 312 323 324 328 330 334 341 342 348 355 356 0 7 12 6 1 9 10 13 8 10 20
301 306 312 312 314 314 311 311 312 311 306 305 307 303 304 310 302 285 284 276 278 290 310 313 316 326 330 337 343 343 344 352 356 354 1 3 8 13 11 12 17 13 25 21
306 306 305 308 310 310 311 310 310 309 309 307 303 304 299 299 294 285 287 283 266 294 305 304 315 328 334 341 344 344 343 349 349 356 358 0 3 6 16 17 16 14 16 14
304 302 305 309 308 310 316 318 320 317 312 309 306 300 293 281 280 271 264 257 256 289 307 301 319 331 336 344 345 345 344 349 354 356 355 3 3 4 10 16 18 19 17 17